[[{"header":{"parameterUnit":"m.s-1","parameterCategory":1,"la1":30.2991,"la2":30.254,"lo1":-89.0895,"lo2":-89.0444,"dx":0.0017,"dy":0.0017,"nx":28,"ny":28,"refTime":"2022-12-24T09:00:00:Z","depth":0,"parameterNumber":2,"parameterNumberName":"U-component_of_WINDS"},"data":[0,0,0,0,0,0,0,0,0,0,0,0,0,0,0,0,0,0,0,0,0,0,0,0,0,0,0,0,0,0,0,0,0,0,0,0,0,0,0,0,0,0,0,0,0,0,0,0,0,0,0,0,0,0,0,0,0,0,0.5488,0.5487,0,0.5441,0.5441,0.544,0.5424,0.5424,0.5425,0.5425,0.5376,0.5374,0.5373,0,0,0,0,0,0,0,0,0,0,0,0,0,0.5562,0.5561,0.5488,0.5487,0.5487,0.5442,0.5441,0.544,0.5424,0.5424,0.5425,0.5425,0.5376,0.5375,0.5373,0,0,0,0,0,0,0,0,0,0,0,0,0,0.5524,0.5561,0.5488,0.5473,0.5471,0.5442,0.5441,0.544,0.5424,0.5424,0.5425,0.5425,0.5377,0.5375,0.5373,0.5354,0,0,0.5366,0.5365,0,0,0,0,0,0,0,0,0.5526,0.5522,0.5476,0.5474,0.5472,0.5439,0.5449,0.5411,0.5424,0.5442,0.5425,0.5425,0.5397,0.5393,0.5383,0.5351,0.5349,0.5366,0.5364,0.5363,0.5363,0,0,0,0,0,0,0,0.5529,0.5523,0.5469,0.5475,0.5473,0.5469,0.5464,0.5442,0.5418,0.544,0.5439,0.5434,0.5396,0.5386,0.5382,0.5349,0.5366,0.5364,0.5363,0.5362,0.53,0.53,0,0,0,0,0,0,0.5534,0.5526,0.5471,0.5468,0.5501,0.5467,0.5462,0.5449,0.5419,0.5414,0.5434,0.5433,0.5389,0.5385,0.538,0.5357,0.5363,0.5361,0.536,0.53,0.53,0.5299,0,0,0,0,0,0,0.5536,0.553,0.5473,0.5497,0.5489,0.5466,0.5452,0.5448,0.5438,0.5414,0.5409,0.5428,0.5389,0.5383,0.5361,0.5355,0.536,0.5358,0.5301,0.53,0.53,0.5309,0,0,0,0,0,0,0.5538,0.553,0.5523,0.5497,0.5488,0.5454,0.5452,0.5447,0.5435,0.5434,0.5407,0.5403,0.5389,0.5364,0.5359,0.5352,0.5357,0.5301,0.53,0.53,0.5309,0.5309,0.5308,0,0,0,0,0,0.5541,0.5527,0.5522,0.5516,0.5478,0.5454,0.5449,0.5434,0.5434,0.5426,0.5411,0.5404,0.5357,0.5362,0.5356,0.5348,0.5301,0.5301,0.53,0.5309,0.5309,0.5308,0,0,0,0,0,0,0.5552,0.5523,0.5518,0.5495,0.5477,0.5451,0.5441,0.5434,0.5415,0.5415,0.5397,0.5391,0.5369,0.5356,0.5363,0.5329,0.5328,0.5326,0.5338,0.5337,0.5337,0.534,0.5355,0,0,0,0,0,0.5552,0.5535,0.551,0.5492,0.5484,0.5464,0.5453,0.5443,0.5423,0.5415,0.5398,0.5379,0.536,0.5348,0.5329,0.5307,0.5301,0.5299,0.5299,0.5299,0.5297,0.5285,0.5284,0.5297,0.5297,0.5297,0,0,0.5551,0.5533,0.5523,0.5494,0.5479,0.5462,0.5457,0.5439,0.5426,0.5412,0.539,0.5377,0.5355,0.5333,0.5322,0.5321,0.5292,0.5298,0.5298,0.5296,0.5284,0.5283,0.5282,0.5297,0.5297,0.5297,0,0,0.554,0.5525,0.5509,0.5494,0.5472,0.5459,0.5456,0.5431,0.5422,0.54,0.5389,0.5374,0.5341,0.5326,0.5314,0.53,0.5293,0.5295,0.5293,0.5282,0.5281,0.528,0.5275,0.5273,0.5293,0.5293,0.5293,0,0.5542,0.5516,0.5501,0.5484,0.5471,0.546,0.5443,0.5429,0.5402,0.5394,0.5394,0.5354,0.5338,0.5312,0.5309,0.53,0.5295,0.5297,0.5282,0.5281,0.528,0.5275,0.5273,0.5294,0.5294,0.5294,0.5294,0,0.5519,0.5501,0.549,0.5465,0.5452,0.5435,0.5418,0.5406,0.5398,0.5385,0.5363,0.5344,0.5322,0.5315,0.5306,0.5289,0.5289,0.5286,0.5285,0.5279,0.5274,0.5272,0.5294,0.5294,0.5294,0.5294,0,0,0.5512,0.5481,0.5477,0.5466,0.5441,0.5427,0.541,0.5389,0.5379,0.5361,0.5346,0.532,0.5318,0.5304,0.5294,0.5284,0.5275,0.5282,0.5282,0.5281,0.5254,0.5257,0.5255,0.527,0.527,0.527,0.5256,0,0.5498,0.5467,0.5455,0.543,0.5413,0.5403,0.5388,0.5372,0.536,0.5344,0.5331,0.5313,0.5311,0.5303,0.5293,0.5278,0.5269,0.5279,0.5256,0.5256,0.5261,0.5252,0.5254,0.5242,0.5254,0.5254,0.5254,0,0.5478,0.546,0.5434,0.5413,0.5405,0.5392,0.5372,0.5358,0.5339,0.5331,0.5317,0.5308,0.529,0.5292,0.5267,0.5274,0.5264,0.5256,0.5255,0.5252,0.5254,0.5248,0.5238,0.5236,0.525,0.5251,0.5251,0,0.5475,0.5446,0.5426,0.5417,0.5392,0.5383,0.5372,0.5354,0.5342,0.5325,0.5317,0.5298,0.5287,0.5273,0.5259,0.5261,0.5236,0.5236,0.5229,0.5229,0.5223,0.5223,0.521,0.5217,0.5217,0.5217,0.5217,0,0.5461,0.5445,0.5425,0.5413,0.5396,0.5382,0.5364,0.5353,0.5337,0.5323,0.5313,0.5299,0.5282,0.5267,0.5256,0.5237,0.5232,0.5226,0.5223,0.5226,0.5227,0.5219,0.5219,0.5217,0.5217,0.5217,0.5217,0,0.5455,0.5441,0.5419,0.5398,0.5392,0.538,0.5361,0.5349,0.5338,0.532,0.5315,0.5297,0.5278,0.5264,0.5239,0.5232,0.5212,0.5209,0.5219,0.5217,0.5211,0.5211,0.5192,0.5188,0.5198,0.5198,0.5198,0,0.5446,0.5434,0.5411,0.5401,0.5391,0.5375,0.5363,0.535,0.5338,0.5317,0.5308,0.5289,0.5273,0.5244,0.5229,0.521,0.5207,0.5201,0.5204,0.5208,0.5206,0.5207,0.5206,0.52,0.52,0.52,0.52,0,0.5432,0.5426,0.541,0.5392,0.5379,0.5364,0.5349,0.5341,0.5325,0.5313,0.5294,0.5282,0.5258,0.5239,0.522,0.5209,0.5202,0.52,0.5197,0.52,0.5206,0.5203,0.5218,0.52,0.52,0.52,0.52,0.52,0.5424,0.5413,0.5396,0.5379,0.5366,0.5353,0.5341,0.5329,0.5313,0.5293,0.5286,0.5267,0.525,0.5223,0.5212,0.5197,0.5196,0.5192,0.5191,0.519,0.5191,0.5209,0.5193,0.5193,0.5193,0.5193,0.5193,0,0.5409,0.5398,0.5383,0.5363,0.5349,0.5345,0.5329,0.5318,0.5301,0.5286,0.5271,0.5251,0.5233,0.5217,0.5199,0.519,0.5187,0.5186,0.5186,0.5183,0.5192,0.5196,0.5189,0.5189,0.5189,0.5189,0.5189,0.5189,0.54,0.5382,0.5374,0.535,0.5338,0.532,0.5311,0.5299,0.5287,0.5264,0.525,0.524,0.5225,0.5206,0.519,0.5185,0.5179,0.5179,0.5174,0.5182,0.5183,0.5183,0.5187,0.5178,0.5178,0.5166,0.5166,0.5166]},{"header":{"parameterUnit":"m.s-1","parameterCategory":1,"la1":30.2991,"la2":30.254,"lo1":-89.0895,"lo2":-89.0444,"dx":0.0017,"dy":0.0017,"nx":28,"ny":28,"refTime":"2022-12-24T09:00:00:Z","depth":0,"parameterNumber":3,"parameterNumberName":"V-component_of_WINDS"},"data":[0,0,0,0,0,0,0,0,0,0,0,0,0,0,0,0,0,0,0,0,0,0,0,0,0,0,0,0,0,0,0,0,0,0,0,0,0,0,0,0,0,0,0,0,0,0,0,0,0,0,0,0,0,0,0,0,0,0,-3.732,-3.7321,0,-3.7417,-3.7418,-3.7419,-3.7382,-3.738,-3.7378,-3.7376,-3.7472,-3.7476,-3.7481,0,0,0,0,0,0,0,0,0,0,0,0,0,-3.7097,-3.7101,-3.7319,-3.7321,-3.7322,-3.7417,-3.7418,-3.742,-3.7383,-3.738,-3.7377,-3.7375,-3.747,-3.7476,-3.7482,0,0,0,0,0,0,0,0,0,0,0,0,0,-3.7194,-3.7103,-3.7319,-3.7315,-3.7316,-3.7417,-3.7418,-3.742,-3.7383,-3.738,-3.7376,-3.7373,-3.7469,-3.7475,-3.7482,-3.7592,0,0,-3.7504,-3.7507,0,0,0,0,0,0,0,0,-3.7188,-3.7202,-3.7314,-3.7315,-3.7316,-3.7384,-3.7375,-3.7478,-3.7384,-3.7357,-3.7376,-3.7372,-3.7445,-3.7454,-3.7479,-3.7597,-3.7601,-3.7504,-3.7508,-3.7511,-3.7513,0,0,0,0,0,0,0,-3.7182,-3.7198,-3.7358,-3.7316,-3.7317,-3.7307,-3.7317,-3.7394,-3.7419,-3.7359,-3.7357,-3.7369,-3.7445,-3.7473,-3.7481,-3.7602,-3.7504,-3.751,-3.7514,-3.7517,-3.7812,-3.7816,0,0,0,0,0,0,-3.7175,-3.7192,-3.7355,-3.7361,-3.7243,-3.7314,-3.7325,-3.7366,-3.7418,-3.7423,-3.7372,-3.7367,-3.7463,-3.7473,-3.7485,-3.7615,-3.7511,-3.7518,-3.7522,-3.7809,-3.7813,-3.7817,0,0,0,0,0,0,-3.7171,-3.719,-3.7351,-3.7276,-3.7296,-3.7321,-3.7367,-3.7369,-3.7397,-3.7427,-3.7431,-3.7396,-3.746,-3.7475,-3.7566,-3.7618,-3.7521,-3.7527,-3.7804,-3.781,-3.7815,-3.7878,0,0,0,0,0,0,-3.7164,-3.7189,-3.7232,-3.7277,-3.73,-3.7432,-3.737,-3.7374,-3.741,-3.7404,-3.7451,-3.7456,-3.7459,-3.7555,-3.7572,-3.7626,-3.7533,-3.78,-3.7807,-3.7813,-3.7871,-3.7885,-3.7897,0,0,0,0,0,-3.7156,-3.7245,-3.7234,-3.7254,-3.7355,-3.7435,-3.7448,-3.7451,-3.7414,-3.7457,-3.7476,-3.7454,-3.761,-3.7565,-3.7584,-3.764,-3.7796,-3.7805,-3.7813,-3.7866,-3.7882,-3.7896,0,0,0,0,0,0,-3.7204,-3.7251,-3.7239,-3.7346,-3.7387,-3.7428,-3.7482,-3.7468,-3.752,-3.7512,-3.7513,-3.7524,-3.7617,-3.7638,-3.7587,-3.7748,-3.7697,-3.771,-3.7731,-3.7747,-3.776,-3.7752,-3.7539,0,0,0,0,0,-3.7228,-3.729,-3.7327,-3.7417,-3.7439,-3.7457,-3.7492,-3.7491,-3.7533,-3.755,-3.7576,-3.7616,-3.7674,-3.7712,-3.7767,-3.7875,-3.7883,-3.7923,-3.7935,-3.7945,-3.7956,-3.8012,-3.8029,-3.7844,-3.7844,-3.7844,0,0,-3.7276,-3.7309,-3.7348,-3.7428,-3.7459,-3.7522,-3.7472,-3.7541,-3.7588,-3.756,-3.7647,-3.7667,-3.7712,-3.7812,-3.7856,-3.7832,-3.8009,-3.7956,-3.7964,-3.7969,-3.8022,-3.804,-3.8055,-3.785,-3.7849,-3.7848,0,0,-3.7395,-3.7428,-3.7505,-3.7538,-3.7587,-3.7598,-3.7617,-3.7661,-3.7674,-3.7761,-3.7741,-3.7796,-3.7896,-3.7928,-3.7958,-3.8089,-3.807,-3.8107,-3.8172,-3.8227,-3.8242,-3.8255,-3.8299,-3.8316,-3.8117,-3.8117,-3.8117,0,-3.7448,-3.7544,-3.7547,-3.7618,-3.7652,-3.7631,-3.7709,-3.774,-3.7804,-3.7828,-3.7799,-3.7924,-3.7953,-3.8058,-3.809,-3.8115,-3.8135,-3.8101,-3.824,-3.8253,-3.8265,-3.8307,-3.8324,-3.8121,-3.8121,-3.812,-3.812,0,-3.7606,-3.7672,-3.7729,-3.7792,-3.7833,-3.7907,-3.792,-3.7961,-3.7956,-3.797,-3.8058,-3.8092,-3.8153,-3.8178,-3.8174,-3.8283,-3.8266,-3.8239,-3.8188,-3.8286,-3.8326,-3.8343,-3.8127,-3.8125,-3.8124,-3.8123,0,0,-3.7758,-3.7821,-3.7842,-3.7869,-3.7921,-3.7971,-3.8044,-3.8104,-3.8138,-3.8183,-3.8242,-3.8327,-3.8302,-3.8336,-3.8335,-3.8383,-3.8482,-3.835,-3.8351,-3.8372,-3.8602,-3.8621,-3.864,-3.8471,-3.8474,-3.8476,-3.8598,0,-3.788,-3.8008,-3.8012,-3.8128,-3.8188,-3.8169,-3.8231,-3.8269,-3.8284,-3.8336,-3.8352,-3.8412,-3.8375,-3.8395,-3.8442,-3.846,-3.8528,-3.8452,-3.8524,-3.8526,-3.8512,-3.8661,-3.8682,-3.8794,-3.8613,-3.8616,-3.8618,0,-3.8039,-3.8089,-3.8212,-3.8253,-3.8279,-3.8335,-3.839,-3.8441,-3.8482,-3.849,-3.8527,-3.8519,-3.859,-3.8538,-3.8636,-3.8584,-3.8613,-3.8627,-3.8631,-3.8636,-3.8577,-3.8669,-3.8831,-3.8847,-3.8643,-3.8641,-3.8639,0,-3.8136,-3.8234,-3.8319,-3.8343,-3.8395,-3.8434,-3.8457,-3.8496,-3.8531,-3.8579,-3.8601,-3.8657,-3.8686,-3.8728,-3.8734,-3.8696,-3.8832,-3.878,-3.8838,-3.8838,-3.8867,-3.8865,-3.9034,-3.8889,-3.8889,-3.8888,-3.8888,0,-3.8271,-3.8346,-3.8363,-3.8415,-3.8498,-3.8502,-3.8583,-3.8603,-3.8637,-3.8691,-3.8678,-3.8729,-3.8735,-3.8787,-3.8793,-3.8872,-3.8886,-3.8892,-3.8892,-3.8893,-3.8891,-3.8911,-3.8902,-3.8893,-3.8892,-3.8891,-3.889,0,-3.8392,-3.8406,-3.8498,-3.8539,-3.8551,-3.861,-3.8644,-3.8693,-3.8707,-3.8776,-3.8792,-3.8813,-3.8874,-3.8885,-3.8956,-3.896,-3.9054,-3.9047,-3.904,-3.9038,-3.9095,-3.9089,-3.9281,-3.9306,-3.9146,-3.9148,-3.9149,0,-3.8476,-3.8533,-3.8581,-3.8617,-3.8642,-3.87,-3.8736,-3.8742,-3.8779,-3.8831,-3.8873,-3.8933,-3.8981,-3.9078,-3.9099,-3.9153,-3.9146,-3.921,-3.9154,-3.9152,-3.9145,-3.9141,-3.9146,-3.922,-3.9222,-3.9223,-3.9224,0,-3.8624,-3.8628,-3.8681,-3.8737,-3.878,-3.8824,-3.8866,-3.8896,-3.8906,-3.8949,-3.9012,-3.9049,-3.9122,-3.9181,-3.9234,-3.9256,-3.9242,-3.9242,-3.9258,-3.9258,-3.9251,-3.9253,-3.9067,-3.9237,-3.9236,-3.9235,-3.9234,-3.9234,-3.8728,-3.8777,-3.8818,-3.8877,-3.8909,-3.8948,-3.8995,-3.9015,-3.9067,-3.9128,-3.9128,-3.9196,-3.9234,-3.9305,-3.933,-3.9382,-3.9362,-3.9385,-3.9391,-3.9396,-3.9401,-3.9244,-3.9392,-3.9392,-3.9392,-3.9391,-3.9391,0,-3.8873,-3.8898,-3.8953,-3.9011,-3.9057,-3.9041,-3.9086,-3.9125,-3.9185,-3.9223,-3.927,-3.9341,-3.9398,-3.9423,-3.9478,-3.9515,-3.9509,-3.9529,-3.9525,-3.953,-3.9417,-3.9397,-3.9532,-3.9532,-3.9532,-3.9532,-3.9532,-3.9532,-3.8954,-3.9036,-3.9045,-3.9142,-3.9166,-3.9233,-3.926,-3.9295,-3.9325,-3.9405,-3.9452,-3.9468,-3.95,-3.9558,-3.9608,-3.9614,-3.9634,-3.9656,-3.9659,-3.9553,-3.9538,-3.9525,-3.9506,-3.9661,-3.9661,-3.9767,-3.9768,-3.9769]}]]